Location: Brede
(50.9167°N, 0.6000°E)
Time: 18:20:23
(UTC+00:00)

Helios 1B rocket - Pass Details

Date: 08 August 2020
Orbit: 575 x 583 km, 98.1° (Epoch: 23 September)

Event Time Altitude Azimuth Distance (km) Brightness Sun altitude
Rises 00:47:55 0° 14° (NNE) 2,802 7.4 -22.3°
Reaches altitude 10° 00:50:05 10° 15° (NNE) 1,898 6.2 -22.2°
Maximum altitude 00:54:12 89° 95° (E) 583 2.3 -22.1°
Enters shadow 00:54:30 77° 191° (S) 597 2.2 -22.1°
